Location: Pedholt
(56.0260°N, 10.2097°E)
Time: 00:49:38
(UTC+00:00)

SR - Pass Details

Date: 03 August 2021
Orbit: 581 x 873 km, 66.7° (Epoch: 27 September)

Event Time Altitude Azimuth Distance (km) Brightness Sun altitude
Rises 03:51:00 0° 166° (SSE) 3,425 ? 2.0°
Reaches altitude 10° 03:54:18 10° 148° (SSE) 2,462 ? 2.4°
Maximum altitude 03:57:55 18° 109° (ESE) 1,947 ? 2.9°
Drops below altitude 10° 04:01:24 10° 69° (ENE) 2,373 ? 3.3°
Sets 04:04:30 0° 50° (NE) 3,250 ? 3.7°
